sat.trackr.live / text

‹ back to catalog

STARLINK-4293

NORAD 52989 · 2022-076D

PAYLOAD ACTIVE UNKNOWN

§ Identity

Operator
Country
US
Launch date
2022-07-07
Launch site
AFETR
Launch vehicle
Mass (kg)
RCS (m²)

Purposes: comms

External: N2YO · Heavens-Above · Gunter

§ Orbital elements

Epoch: 2026-09-20T03:13:01.123392Z

Period
89.96 min
Inclination
53.2108°
Eccentricity
0.0002155
Mean motion
16.00743477 rev/d
Perigee alt
270.9 km
Apogee alt
273.8 km
Semi-major
6,650.5 km
B*
7.8520e-4
RAAN
260.4984°
Arg perigee
53.5535°
Mean anomaly
306.5695°
Rev number
23,277

§ Raw data

STARLINK-42931 52989U 22076D   26263.13404078  .00427304  90190-4  78520-3 0  99942 52989  53.2108 260.4984 0002155  53.5535 306.5695 16.00743477232770

JSON: /api/v1/satellites/52989 · /tle

For live sub-satellite position, see the globe view (requires WebGL).

§ Visibility from observer

Set your observer location to see the next 7 days of passes ≥ 10°. The values pass through the URL so the page stays shareable.

No JS? Fill the form by hand. The geolocation button needs JavaScript.